Hourly Data Report for October 12, 2015

All times are specified in Local Standard Time (LST). Add 1 hour to adjust for Daylight Saving Time where and when it is observed.

POND INLET A
NUNAVUT

72°41'22.000" N
77°58'08.000" W
61.60 m
2403206
71095
YIO

Download Data

Hourly Data (October 2015)
Hourly Data Report for October 12, 2015
Temp Definition
°C
Dew Point Temp Definition
°C
Rel Hum Definition
%
Wind Dir Definition
10's deg

Wind Spd Definition
km/h
Visibility Definition
km
Stn Press Definition
kPa
Hmdx Definition


Wind Chill Definition


Weather Definition


TIME
00:00 Legend Double Dagger -3.0 -4.4 90 23 13 16.1 99.66   -8 LegendNANA
01:00 Legend Double Dagger -4.1 -5.2 92 18 13 16.1 99.64   -9 LegendNANA
02:00 Legend Double Dagger -3.9 -5.0 92 20 9 16.1 99.62   -8 LegendNANA
03:00 Legend Double Dagger -4.4 -5.2 94 18 9 16.1 99.58   -8 LegendNANA
04:00 Legend Double Dagger -4.5 -5.5 93 17 9 16.1 99.55   -8 LegendNANA
05:00 Legend Double Dagger -4.1 -4.9 94 16 8 16.1 99.51   -8 LegendNANA
06:00 Legend Double Dagger -4.5 -5.1 96 16 8 16.1 99.49   -8 LegendNANA
07:00 Legend Double Dagger -5.0 -5.7 95 17 9 16.1 99.46   -9 LegendNANA
08:00 Legend Double Dagger -4.7 -5.5 94 18 8 16.1 99.43   -8 LegendNANA
09:00 Legend Double Dagger -4.7 -5.7 93 17 8 16.1 99.39   -8 LegendNANA
10:00 Legend Double Dagger -4.4 -5.8 90 17 9 16.1 99.36   -8 LegendNANA
11:00 Legend Double Dagger -4.2 -5.9 88 15 11 16.1 99.32   -9 LegendNANA
12:00 Legend Double Dagger -4.8 -6.2 90 18 8 16.1 99.29   -8 LegendNANA
13:00 Legend Double Dagger -4.1 -5.5 90 16 9 16.1 99.27   -8 LegendNANA
14:00 Legend Double Dagger -3.8 -5.2 90 15 9 16.1 99.24   -8 LegendNANA
15:00 Legend Double Dagger -3.8 -5.1 91 13 8 16.1 99.21   -7 LegendNANA
16:00 Legend Double Dagger -3.9 -5.3 90 13 4 16.1 99.19   -6 LegendNANA
17:00 Legend Double Dagger -5.5 -6.5 93 12 4 16.1 99.16   -7 LegendNANA
18:00 Legend Double Dagger -4.7 -5.4 95 8 5 16.1 99.13   -7 LegendNANA
19:00 Legend Double Dagger -4.6 -6.0 90 LegendMM 4 16.1 99.11   -6 LegendNANA
20:00 Legend Double Dagger -3.7 -7.1 77 7 11 16.1 99.06   -8 LegendNANA
21:00 Legend Double Dagger -1.9 -6.7 70 8 22 16.1 99.01   -8 LegendNANA
22:00 Legend Double Dagger -2.2 -5.9 76 6 15 16.1 99.00   -7 LegendNANA
23:00 Legend Double Dagger -2.0 -7.2 68 6 15 16.1 98.97   -7 LegendNANA

Notes on Data Quality.

Legend

  • E = Estimated
  • M = Missing
  • NA = Not Available
  • ‡ = Partner data that is not subject to review by the National Climate Archives
Date modified: